Tracking 17884 objects as of 8-December-2016
HD Live streaming from Space Station
objects crossing your sky now

GLOBALSTAR M042

Track GLOBALSTAR M042 now!
10-day predictions
GLOBALSTAR M042 is classified as:


NORAD ID: 25679
Int'l Code: 1999-019D
Perigee: 1,588.0 km
Apogee: 1,594.0 km
Inclination: 52.0 °
Period: 117.8 minutes
Semi major axis: 7962 km
RCS: 2.3601 m2 (large)
Launch date: April 15, 1999
Source: Globalstar (GLOB)
Launch site: TYURATAM MISSILE AND SPACE COMPLEX (TTMTR)
Your satellite tracking list
Your tracking list is empty





NASA's NSSDC Master Catalog

Two Line Element Set (TLE):
1 25679U 99019D   16341.96152558 -.00000090 +00000-0 +20981-4 0  9997
2 25679 051.9992 201.5855 0003756 039.6967 067.3795 12.21993199804558
Source of the keplerian elements: AFSPC